Flag for US Virgin Islands Weather past 2 weeks in Christiansted, US Virgin Islands

Now
85 °F

Sunny.


Feels Like: 89 °F
Forecast: 74 / 81 °F
Wind: 16 mph from East

Location: Christiansted / Henry E. Rohlsen Airport - Saint Croix


UV Index: 10 (Very high)

Visibility: 10 mi


Pressure: 30.03 "Hg

Humidity: 61%

Dew point: 70 °F

Location of ChristianstedLocation

Historic Weather in Christiansted

°F

Christiansted temperature yesterday

Maximum temperature yesterday: 86 °F (at 12:53 PM)
Minimum temperature yesterday: 77 °F (at 7:53 AM)
Average temperature yesterday: 80 °F

Past Weeks' High & Low Weather Summary

 TemperatureHumidityPressure
High87 °F (Apr 18, 11:53 AM)94% (Apr 19, 2:28 PM)30.14 "Hg (Apr 19, 2:28 PM)
Low70 °F (Apr 12, 4:53 AM)50% (Apr 12, 11:53 AM)29.90 "Hg (Apr 15, 3:53 PM)
Average80 °F70%30.03 "Hg
* Reported Apr 6 9:53 AM — Apr 21 9:53 AM, Christiansted, Weather by CustomWeather, © 2014

Note: Actual official high and low records may vary slightly from our data, if they occured in-between our weather recording intervals... More about our weather records

Advertising

Historic Weather Conditions — Data for Previous 24 hours

 ConditionsComfort  
Time TempWeatherWind HumidityBarometerVisibility
9:53 AM
Apr 21
84 °FPassing clouds.15 mph63%30.03 "Hg10 mi
8:53 AM83 °FPassing clouds.13 mph68%30.03 "Hg10 mi
7:53 AM82 °FScattered clouds.15 mph67%30.02 "Hg10 mi
6:53 AM79 °FPassing clouds.13 mph74%30.01 "Hg10 mi
5:53 AM78 °FPassing clouds.10 mph74%30.01 "Hg10 mi
5:15 AM79 °FOvercast.12 mph74%30.01 "Hg10 mi
4:53 AM78 °FOvercast.13 mph76%30.00 "Hg10 mi
4:41 AM79 °FPassing clouds.10 mph74%30.00 "Hg10 mi
3:53 AM78 °FPassing clouds.13 mph76%29.99 "Hg10 mi
3:43 AM79 °FPassing clouds.12 mph74%30.00 "Hg10 mi
3:12 AM79 °FPassing clouds.8 mph74%30.00 "Hg10 mi
2:53 AM77 °FPassing clouds.10 mph79%30.00 "Hg10 mi
1:53 AM78 °FPassing clouds.9 mph76%30.02 "Hg10 mi
12:53 AM78 °FPassing clouds.9 mph74%30.04 "Hg10 mi
11:53 PM
Apr 20
78 °FPassing clouds.12 mph76%30.04 "Hg10 mi
10:53 PM78 °FClear.6 mph74%30.06 "Hg10 mi
9:53 PM78 °FPassing clouds.7 mph74%30.07 "Hg10 mi
8:53 PM77 °FPassing clouds.5 mph77%30.07 "Hg10 mi
7:53 PM78 °FPassing clouds.5 mph74%30.06 "Hg10 mi
6:53 PM79 °FPassing clouds.10 mph72%30.05 "Hg10 mi
5:53 PM82 °FPassing clouds.12 mph65%30.03 "Hg10 mi
4:53 PM83 °FSunny.15 mph63%30.02 "Hg10 mi
3:53 PM84 °FPassing clouds.15 mph61%30.02 "Hg10 mi
2:53 PM85 °FSunny.14 mph61%30.03 "Hg10 mi
1:53 PM86 °FScattered clouds.16 mph57%30.04 "Hg10 mi
12:53 PM86 °FScattered clouds.18 mph59%30.06 "Hg10 mi
11:53 AM85 °FPassing clouds.21 mph61%30.08 "Hg10 mi
Weather by CustomWeather, © 2014

See weather overview